Location: ????????
(55.0559°N, 39.1270°E)
Time: 17:00:36
(UTC+00:00)

USA 267 - Visible Passes

Search period start: 09 February 2026 00:00
Search period end: 19 February 2026 00:00
Orbit: 1101 x 1107 km, 123.0° (Epoch: 10 January)

Date Brightness Start Highest point End Pass type
(mag) Time Alt. Az. Time Alt. Az. Time Alt. Az.
9 Feb 3.3 15:51:47 18° ENE 15:56:58 90° NNW 16:03:33 10° WSW visible
9 Feb 3.2 17:39:08 67° ENE 17:39:59 76° N 17:46:32 10° W visible
9 Feb 4.7 19:26:28 31° WNW 19:26:28 31° WNW 19:29:38 10° WNW visible
10 Feb 3.4 15:07:31 10° ENE 15:14:05 71° SSE 15:20:38 10° WSW visible
10 Feb 3.3 16:54:28 38° ENE 16:57:15 79° N 17:03:48 10° W visible
10 Feb 3.7 18:41:48 56° WNW 18:41:48 56° WNW 18:46:48 10° WNW visible
10 Feb 5.5 20:29:08 14° WNW 20:29:08 14° WNW 20:29:59 10° WNW visible
11 Feb 3.2 16:09:48 21° ENE 16:14:28 90° NNW 16:21:03 10° WSW visible
11 Feb 3.2 17:57:08 74° NNE 17:57:28 77° N 18:04:01 10° W visible
11 Feb 4.9 19:44:28 27° WNW 19:44:28 27° WNW 19:47:08 10° WNW visible
12 Feb 3.4 15:25:08 11° ENE 15:31:36 71° SSE 15:38:08 10° WSW visible
12 Feb 3.2 17:12:28 44° ENE 17:14:45 79° N 17:21:18 10° W visible
12 Feb 4.0 18:59:48 48° WNW 18:59:48 48° WNW 19:04:18 10° WNW visible
12 Feb 5.7 20:47:08 12° WNW 20:47:08 12° WNW 20:47:29 10° WNW visible
13 Feb 3.2 16:27:49 25° ENE 16:31:58 90° NNW 16:38:33 10° WSW visible
13 Feb 3.2 18:15:08 76° NNW 18:15:08 76° NNW 18:21:32 10° W visible
13 Feb 5.1 20:02:28 23° WNW 20:02:28 23° WNW 20:04:38 10° WNW visible
14 Feb 3.3 15:43:08 13° ENE 15:49:05 71° SSE 15:55:38 10° WSW visible
14 Feb 3.2 17:30:29 52° ENE 17:32:15 79° N 17:38:48 10° W visible
14 Feb 4.3 19:17:49 41° WNW 19:17:49 41° WNW 19:21:48 10° WNW visible
15 Feb 3.7 14:59:43 10° ENE 15:06:04 49° SE 15:12:22 10° SW visible
15 Feb 3.2 16:45:49 29° ENE 16:49:28 90° NNW 16:56:03 10° WSW visible
15 Feb 3.4 18:33:09 70° NW 18:33:09 70° NW 18:39:01 10° W visible
15 Feb 5.3 20:20:29 19° WNW 20:20:29 19° WNW 20:22:08 10° WNW visible
16 Feb 3.3 16:01:09 16° ENE 16:06:36 71° SSE 16:13:08 10° WSW visible
16 Feb 3.2 17:48:29 60° ENE 17:49:45 78° N 17:56:18 10° W visible
16 Feb 4.5 19:35:49 35° WNW 19:35:49 35° WNW 19:39:18 10° WNW visible
17 Feb 3.7 15:17:13 10° ENE 15:23:34 49° SE 15:29:52 10° SW visible
17 Feb 3.2 17:03:50 34° ENE 17:06:58 89° NNW 17:13:33 10° WSW visible
17 Feb 3.6 18:51:09 61° WNW 18:51:09 61° WNW 18:56:32 10° W visible
17 Feb 5.4 20:38:30 16° WNW 20:38:30 16° WNW 20:39:38 10° WNW visible
18 Feb 3.3 16:19:11 19° ENE 16:24:05 72° SSE 16:30:38 10° WSW visible
18 Feb 3.2 18:06:30 70° NE 18:07:15 78° N 18:13:48 10° W visible
18 Feb 4.7 19:53:50 29° WNW 19:53:50 29° WNW 19:56:48 10° WNW visible
